This is the latest recevied weather packets stored in our database for station/object YS1AHL-32. If no packets are shown the sender has not sent any weather packets the latest 1 day(s).
| Time | Temp. | Humidity | Pressure | Rain* | Wind** | Luminosity | Snow |
|---|---|---|---|---|---|---|---|
| 1778053024 | 5.56° C | 92% | 1011 hPa | 0 mm | - | - | - |
| 1778052423 | 6.11° C | 92% | 1011 hPa | 0.25 mm | - | - | - |
| 1778052363 | 6.11° C | 92% | 1011 hPa | 0.25 mm | - | - | - |
| 1778051222 | 6.67° C | 92% | 1011 hPa | 0 mm | - | - | - |
| 1778050561 | 7.22° C | 92% | 1011 hPa | 0.25 mm | - | - | - |
| 1778049420 | 8.33° C | 92% | 1011 hPa | 0.25 mm | - | - | - |
| 1778048819 | 5.56° C | 90% | 1010 hPa | 0.25 mm | - | - | - |
| 1778048759 | 5.56° C | 90% | 1010 hPa | 0.25 mm | - | - | - |
| 1778048158 | 6.11° C | 90% | 1010 hPa | 0.25 mm | - | - | - |
| 1778047618 | 6.67° C | 90% | 1010 hPa | 0.76 mm | - | - | - |
| 1778047017 | 6.67° C | 90% | 1010 hPa | 0.76 mm | - | - | - |
| 1778046417 | 7.22° C | 90% | 1010 hPa | 1.02 mm | - | - | - |
| 1778046357 | 7.22° C | 90% | 1010 hPa | 1.02 mm | - | - | - |
| 1778045816 | 7.78° C | 90% | 1010 hPa | 0.51 mm | - | - | - |
| 1778045756 | 7.78° C | 90% | 1010 hPa | 0.51 mm | - | - | - |
| 1778045216 | 8.33° C | 90% | 1009 hPa | 0.25 mm | - | - | - |
| 1778045156 | 8.33° C | 90% | 1009 hPa | 0.25 mm | - | - | - |
| 1778044555 | 8.89° C | 90% | 1009 hPa | 0.51 mm | - | - | - |
| 1778044015 | 6.67° C | 77% | 1009 hPa | 0.51 mm | - | - | - |
| 1778043954 | 6.67° C | 77% | 1009 hPa | 0.51 mm | - | - | - |
| 1778043414 | 7.22° C | 77% | 1009 hPa | 0 mm | - | - | - |
| 1778043354 | 7.22° C | 77% | 1009 hPa | 0 mm | - | - | - |
| 1778042753 | 7.78° C | 77% | 1009 hPa | 0 mm | - | - | - |
| 1778042212 | 8.33° C | 77% | 1009 hPa | 0 mm | - | - | - |
| 1778041612 | 8.89° C | 77% | 1008 hPa | 0 mm | - | - | - |
* Rain latest hour (hover to see other rain measurements)
** Current wind speed in m/s (hover to see current wind gust speed)